STARLINK-32047, 61516

Orbit data source: Space-Track

STARLINK-32047, 61516 is a payload satellite owned by SpaceX/Seattle (US) in LEO that was launched on Tue, 15 Oct 2024 UTC via an FALCON 9 launch vehicle from the Air Force Eastern Test Range (AFETR). Payload-class satellites include a variety of spacecraft equipped with specific instruments for various scientific and technological missions. These include communications satellites like Starlink; space stations such as the ISS; scientific satellites like the Hubble; Earth observation satellites from companies like Planet Labs, Umbra, and HawkEye 360; GPS; miniature CubeSats for education and research; and military/defense satellites.

Loading next visibility...
Identifier
61516, 2024-183H
Orbit
LEO
Country
Flag of USUS
Related business
Manufacturer
SpaceX/Seattle
Mission
Operational Commercial Communications
Bus & Motor
STARLINK V2M, Unknown motor
Mass
730 kg wet, ~700 kg dry
Launch date (UTC)
2024-10-15 (1 year ago)
Launch vehicle
FALCON 9
Launch site
Air Force Eastern Test Range (AFETR)
Object type
Payload
Rocket body
Debris
Shape & HBR
Box + 2 Pan, 17.7 m
Radar Cross Section
33.884 m², Large (>1 m²)

Expand to show TLE details & history
Last TLE update: 15 hours ago

TLE from 15 hours ago
0 STARLINK-32047
1 61516U 24183H   25346.82442334 -.00000721  00000-0 -12221-4 0  9991
2 61516  53.1593 185.8749 0001517  99.0722 261.0451 15.30184451 66353
Epoch: 2025-12-12T19:47Z
TLE epoch observation values (Epoch: 2025-12-12T19:47:10.176Z)
Latitude
0.00002°
Longitude
167.32201°
Altitude
476.323 km
Speed
7.629 km/s
True Right ascension
12h 23m 29s
True Declination
0° 00' 00"
Sunlit
Object was in daylight at epoch
Visualization orbit readout
Latitude
Unknown
Longitude
Unknown
Altitude
Unknown
Speed
Unknown
Apparent Right ascension
Unknown
Apparent Declination
Unknown
Sunlit
N/A
Visualization observer readout
Local Sidereal Time
09:17:54
Azimuth
Unknown
Elevation
Unknown
Doppler factor
Unknown
Orbital elements
Apogee altitude
476.558 km
Perigee altitude
474.478 km
Semi-major axis
6,853.655 km
Eccentricity
0.00015
Inclination
53.1593°
RAAN
185.8749°
Arg. of periapsis
99.0722°
True anomaly
261.02793°
Mean anomaly
261.0451°
Eccentric anomaly
261.03651°
Mean motion
3.82525 °/min
Orbital period
94.11 mins
BSTAR
-0.000012221
Loading maneuver chart data...
Computing Atmospheric mass density...
Loading historical data...
Loading historical data...
Loading historical data...
Loading historical data...
Loading historical data...
Loading historical data...
Loading historical data...

Documentation

Showing up to 5 results
|